2022-155A (54251 NORAD) Tracking and Keplerian Element Data

This shows tracking and keplerian element data for the satellite.

Feedback or suggestion? Click here.




ElementValue
Catalog54251
Name2022-155A
Epoch Orbit890
Epoch Day14.24021016
Epoch Year2023
RAAN123.0278
Inclination97.5371
Eccentricity0.0015393
Argument of Perigee87.6818
Mean Anonmoly302.6484
Mean Motion15.09929729
Decay Rate8.903E-05
L11 54251U 22155A 23014.24021016 .00008903 00000+0 55118-3 0 9990
L22 54251 97.5371 123.0278 0015393 87.6818 302.6484 15.09929729 8900



Live tracking and technical data element details for 2022-155A (NORAD 54251). 2022-155A can be tracked NOW for your location showing map with azimuth and elevation plus other details from your city location.







IsCatalogInMostPopularTable: catalog: 54251, numindb: 11
Update: records affected: 1



GetName: 54251 2022-155A

Hit Count: updated at: Fri, 27 Jan 2023 20:40:18 GMT